NOAA 16 DEB, 41291

Orbit data source: Space-Track

NOAA 16 DEB, 41291 is space debris in SSO originally from a launch on Thu, 21 Sep 2000 UTC launched from the Air Force Western Test Range (AFWTR). Debris objects in space refer to the collection of defunct objects orbiting the Earth. Examples of debris include non-operational satellites, rocket bodies, and fragments generated from explosions, collisions, or faulty payload assembly.

Loading next visibility...
Identifier
41291, 2000-055GT
Orbit
SSO
Country
Flag of USUS
Related business
Manufacturer
Unknown
Mission
Spacecraft
Bus & Motor
Unknown
Mass
Unknown
Launch date (UTC)
2000-09-21 (26 years ago)
Launch vehicle
Unknown
Launch site
Air Force Western Test Range (AFWTR)
Object type
Payload
Rocket body
Debris
Shape & HBR
Unknown shape, 0.1 m
Radar Cross Section
Medium (>0.1 m² and <1 m²)

Expand to show TLE details & history
Last TLE update: 2 days ago

TLE from 2 days ago
0 NOAA 16 DEB
1 41291U 00055GT  26171.15408932  .00006480  00000-0  14011-2 0  9993
2 41291  98.9811  65.0530 0036083  37.7358 322.6359 14.58247624551146
Epoch: 2026-06-20T03:41Z
TLE epoch observation values (Epoch: 2026-06-20T03:41:53.317Z)
Latitude
-0.00001°
Longitude
101.20806°
Altitude
681.53 km
Speed
7.527 km/s
True Right ascension
04h 20m 12s
True Declination
0° 00' 00"
Sunlit
Object was in daylight at epoch
Visualization orbit readout
Latitude
Unknown
Longitude
Unknown
Altitude
Unknown
Speed
Unknown
Apparent Right ascension
Unknown
Apparent Declination
Unknown
Sunlit
N/A
Visualization observer readout
Local Sidereal Time
23:18:35
Azimuth
Unknown
Elevation
Unknown
Doppler factor
Unknown
Orbital elements
Apogee altitude
721.484 km
Perigee altitude
670.434 km
Semi-major axis
7,074.096 km
Eccentricity
0.00361
Inclination
98.9811°
RAAN
65.053°
Arg. of periapsis
37.7358°
True anomaly
322.38407°
Mean anomaly
322.6359°
Eccentric anomaly
322.51007°
Mean motion
3.64785 °/min
Orbital period
98.69 mins
BSTAR
0.0014011
Loading maneuver chart data...
Computing Atmospheric mass density...
Loading historical data...
Loading historical data...
Loading historical data...
Loading historical data...
Loading historical data...
Loading historical data...
Loading historical data...

Documentation

Showing up to 5 results
|